• In Uzbekistan
  • List of Countries
  • For 7 days
  • Water Temperature
  • Satellite Maps
  • Weather Map
  • Weather Widgets
  • user-avatar
    Login

    Hourly Weather Plyacy

    Today, 23 April, Tuesday

    Time Temperature Precipitation Wind Pressure Humidity
    00:00 +10°C° 0 mm 1 mps 754 mmHg 52%
    01:00 +9°C° 0 mm 1 mps 754 mmHg 53%
    02:00 +8°C° 0 mm 0 mps 754 mmHg 55%
    03:00 +7°C° 0 mm 0 mps 754 mmHg 56%
    04:00 +7°C° 0 mm 0 mps 754 mmHg 58%
    05:00 +7°C° 0 mm 0 mps 755 mmHg 59%
    06:00 +10°C° 0 mm 1 mps 755 mmHg 55%
    07:00 +12°C° 0 mm 1 mps 755 mmHg 52%
    08:00 +14°C° 0 mm 1 mps 755 mmHg 48%
    09:00 +15°C° 0 mm 1 mps 755 mmHg 44%
    10:00 +18°C° 0 mm 1 mps 755 mmHg 39%
    11:00 +18°C° 0 mm 2 mps 755 mmHg 35%
    12:00 +20°C° 0 mm 1 mps 755 mmHg 33%
    13:00 +20°C° 0 mm 1 mps 755 mmHg 31%
    14:00 +21°C° 0 mm 1 mps 755 mmHg 29%
    15:00 +21°C° 0 mm 1 mps 755 mmHg 31%
    16:00 +20°C° 0 mm 1 mps 754 mmHg 32%
    17:00 +20°C° 0 mm 1 mps 754 mmHg 34%
    18:00 +18°C° 0 mm 1 mps 754 mmHg 38%
    19:00 +15°C° 0 mm 1 mps 754 mmHg 43%
    20:00 +13°C° 0 mm 1 mps 754 mmHg 48%
    21:00 +13°C° 0 mm 1 mps 754 mmHg 49%
    22:00 +12°C° 0 mm 1 mps 754 mmHg 51%
    23:00 +11°C° 0 mm 1 mps 754 mmHg 53%

    Tomorrow, 24 April, Wednesday

    Time Temperature Precipitation Wind Pressure Humidity
    00:00 +11°C° 0 mm 1 mps 754 mmHg 54%
    01:00 +10°C° 0 mm 0 mps 754 mmHg 54%
    02:00 +9°C° 0 mm 0 mps 755 mmHg 55%
    03:00 +9°C° 0 mm 0 mps 755 mmHg 56%
    04:00 +9°C° 0 mm 0 mps 755 mmHg 57%
    05:00 +8°C° 0 mm 0 mps 755 mmHg 59%
    06:00 +11°C° 0 mm 1 mps 755 mmHg 55%
    07:00 +13°C° 0 mm 1 mps 755 mmHg 52%
    08:00 +15°C° 0 mm 1 mps 755 mmHg 49%
    09:00 +18°C° 0 mm 1 mps 755 mmHg 45%
    10:00 +19°C° 0 mm 1 mps 755 mmHg 41%
    11:00 +20°C° 0 mm 2 mps 755 mmHg 38%
    12:00 +20°C° 0 mm 2 mps 755 mmHg 37%
    13:00 +20°C° 0 mm 3 mps 754 mmHg 36%
    14:00 +21°C° 0 mm 3 mps 754 mmHg 36%
    15:00 +20°C° 0 mm 3 mps 754 mmHg 38%
    16:00 +20°C° 0 mm 2 mps 754 mmHg 41%
    17:00 +20°C° 0 mm 2 mps 754 mmHg 44%
    18:00 +18°C° 0 mm 2 mps 753 mmHg 48%
    19:00 +16°C° 0 mm 2 mps 753 mmHg 52%
    20:00 +14°C° 0 mm 2 mps 753 mmHg 56%
    21:00 +14°C° 0 mm 2 mps 753 mmHg 57%
    22:00 +13°C° 0 mm 2 mps 753 mmHg 58%
    23:00 +13°C° 0 mm 2 mps 753 mmHg 59%

    Day after tomorrow, 25 April, Thursday

    Time Temperature Precipitation Wind Pressure Humidity
    00:00 +12°C° 0 mm 2 mps 753 mmHg 60%
    01:00 +12°C° 0 mm 1 mps 753 mmHg 60%
    02:00 +11°C° 0 mm 1 mps 753 mmHg 60%
    03:00 +11°C° 0 mm 1 mps 753 mmHg 61%
    04:00 +11°C° 0 mm 1 mps 753 mmHg 62%
    05:00 +10°C° 0 mm 1 mps 754 mmHg 63%
    06:00 +12°C° 0 mm 1 mps 754 mmHg 60%
    07:00 +14°C° 0 mm 2 mps 754 mmHg 56%
    08:00 +16°C° 0 mm 2 mps 754 mmHg 53%
    09:00 +17°C° 0 mm 2 mps 754 mmHg 49%
    10:00 +19°C° 0 mm 3 mps 753 mmHg 44%
    11:00 +20°C° 0 mm 4 mps 753 mmHg 40%
    12:00 +20°C° 0 mm 4 mps 753 mmHg 39%
    13:00 +21°C° 0 mm 4 mps 753 mmHg 38%
    14:00 +21°C° 0 mm 4 mps 752 mmHg 37%
    15:00 +21°C° 0 mm 3 mps 752 mmHg 40%
    16:00 +21°C° 0 mm 3 mps 752 mmHg 42%
    17:00 +21°C° 0 mm 3 mps 752 mmHg 44%
    18:00 +19°C° 0 mm 2 mps 751 mmHg 49%
    19:00 +17°C° 0 mm 2 mps 751 mmHg 53%
    20:00 +15°C° 0 mm 2 mps 751 mmHg 58%
    21:00 +14°C° 0 mm 2 mps 751 mmHg 59%
    22:00 +14°C° 0 mm 2 mps 751 mmHg 60%
    23:00 +13°C° 0 mm 2 mps 751 mmHg 62%

    26 April, Friday

    Time Temperature Precipitation Wind Pressure Humidity
    00:00 +13°C° 0 mm 2 mps 751 mmHg 63%
    01:00 +12°C° 0 mm 2 mps 751 mmHg 64%
    02:00 +12°C° 0 mm 2 mps 751 mmHg 66%
    03:00 +12°C° 0 mm 2 mps 751 mmHg 67%
    04:00 +10°C° 0 mm 2 mps 750 mmHg 68%
    05:00 +10°C° 0 mm 2 mps 750 mmHg 70%
    06:00 +13°C° 0 mm 2 mps 750 mmHg 66%
    07:00 +13°C° 0 mm 3 mps 750 mmHg 62%
    08:00 +16°C° 0 mm 3 mps 750 mmHg 58%
    09:00 +17°C° 0 mm 4 mps 750 mmHg 53%
    10:00 +19°C° 0 mm 5 mps 750 mmHg 48%
    11:00 +20°C° 0 mm 5 mps 749 mmHg 43%
    12:00 +21°C° 0 mm 5 mps 749 mmHg 42%
    13:00 +21°C° 0 mm 5 mps 749 mmHg 41%
    14:00 +22°C° 0 mm 5 mps 748 mmHg 40%
    15:00 +21°C° 0 mm 5 mps 748 mmHg 42%
    16:00 +21°C° 0 mm 4 mps 747 mmHg 45%
    17:00 +21°C° 0 mm 4 mps 747 mmHg 48%
    18:00 +19°C° 0 mm 4 mps 747 mmHg 53%
    19:00 +17°C° 0 mm 3 mps 746 mmHg 59%
    20:00 +14°C° 0 mm 3 mps 746 mmHg 64%
    21:00 +14°C° 0 mm 3 mps 746 mmHg 65%
    22:00 +13°C° 0 mm 4 mps 746 mmHg 67%
    23:00 +13°C° 0 mm 4 mps 746 mmHg 68%

    27 April, Saturday

    Time Temperature Precipitation Wind Pressure Humidity
    00:00 +12°C° 0 mm 4 mps 745 mmHg 69%
    01:00 +12°C° 0 mm 4 mps 745 mmHg 71%
    02:00 +11°C° 0 mm 4 mps 745 mmHg 72%
    03:00 +11°C° 0 mm 4 mps 744 mmHg 72%
    04:00 +11°C° 0 mm 4 mps 744 mmHg 72%
    05:00 +11°C° 0 mm 4 mps 743 mmHg 73%
    06:00 +12°C° 0 mm 5 mps 743 mmHg 70%
    07:00 +13°C° 0 mm 5 mps 743 mmHg 67%
    08:00 +14°C° 0 mm 6 mps 743 mmHg 64%
    09:00 +15°C° 0.1 mm 6 mps 742 mmHg 62%
    10:00 +17°C° 0.1 mm 6 mps 742 mmHg 60%
    11:00 +19°C° 0.1 mm 6 mps 742 mmHg 59%
    12:00 +19°C° 0.4 mm 6 mps 742 mmHg 59%
    13:00 +20°C° 0.4 mm 6 mps 742 mmHg 60%
    14:00 +21°C° 0.4 mm 6 mps 741 mmHg 60%
    15:00 +20°C° 0 mm 6 mps 741 mmHg 63%
    16:00 +19°C° 0 mm 5 mps 740 mmHg 67%
    17:00 +17°C° 0 mm 5 mps 740 mmHg 70%
    18:00 +17°C° 0.2 mm 4 mps 740 mmHg 75%
    19:00 +16°C° 0.2 mm 3 mps 740 mmHg 80%
    20:00 +14°C° 0.2 mm 3 mps 739 mmHg 85%
    21:00 +14°C° 0.3 mm 3 mps 739 mmHg 87%
    22:00 +14°C° 0.3 mm 3 mps 739 mmHg 89%
    23:00 +14°C° 0.3 mm 3 mps 739 mmHg 91%

    28 April, Sunday

    Time Temperature Precipitation Wind Pressure Humidity
    00:00 +13°C° 0.1 mm 3 mps 739 mmHg 92%
    01:00 +13°C° 0.1 mm 3 mps 738 mmHg 93%
    02:00 +14°C° 0.1 mm 2 mps 738 mmHg 94%
    03:00 +14°C° 0 mm 2 mps 738 mmHg 95%
    04:00 +13°C° 0 mm 2 mps 738 mmHg 95%
    05:00 +13°C° 0 mm 2 mps 738 mmHg 96%
    06:00 +14°C° 0 mm 2 mps 738 mmHg 93%
    07:00 +14°C° 0 mm 3 mps 738 mmHg 90%
    08:00 +16°C° 0 mm 3 mps 738 mmHg 87%
    09:00 +16°C° 0 mm 3 mps 738 mmHg 86%
    10:00 +16°C° 0 mm 3 mps 739 mmHg 84%
    11:00 +14°C° 0 mm 3 mps 739 mmHg 83%
    12:00 +14°C° 0 mm 3 mps 739 mmHg 81%
    13:00 +14°C° 0 mm 3 mps 739 mmHg 79%
    14:00 +14°C° 0 mm 4 mps 739 mmHg 78%
    15:00 +14°C° 0 mm 4 mps 739 mmHg 78%
    16:00 +14°C° 0 mm 3 mps 739 mmHg 78%
    17:00 +13°C° 0 mm 3 mps 739 mmHg 78%
    18:00 +13°C° 0 mm 3 mps 739 mmHg 80%
    19:00 +12°C° 0 mm 3 mps 740 mmHg 81%
    20:00 +13°C° 0 mm 2 mps 740 mmHg 83%
    21:00 +12°C° 0 mm 2 mps 740 mmHg 84%
    22:00 +12°C° 0 mm 2 mps 740 mmHg 86%
    23:00 +10°C° 0 mm 2 mps 740 mmHg 87%
    Show more